Погода в Луховицах

Россия / Московская область     54°57′54″N   39°01′31″E
темп.,
°C
ветер,
м/с
пор.,
м/с
влажн.,
%
обл.,
%
осадки,
мм/ч
давл.,
гПа
погр.,
м
6 марта, сб
сб600:00−10з23860 0.0 101524
03:00−12з23890 0.0 101621
06:00−13зсз23900 0.0 101622
09:00−10зсз23910 0.0 1017127
12:00−6сз35865 0.0 1017464
15:00−4зсз357838 0.1 1015862
18:00−7з338773 0.2 101552
21:00−11з348967 0.3 101547
7 марта, вс
вс700:00−12зюз45900 0.0 101488
03:00−11юз512900 0.0 1011205
06:00−9юз7158667 0.0 1007512
09:00−7юз9179084 0.1 1002804
12:00−4юз101792100 0.8 9971145
15:00−2юз101791100 1.9 9951292
18:00−6зсз51472100 0.6 996614
21:00−8зюз6167550 0.6 998436
8 марта, пн
пн800:00−8зюз6147762 0.0 997406
03:00−8юз7158281 0.0 996529
06:00−6зюз61195100 0.3 993616
09:00−8зсз51089100 0.6 994532
12:00−6сз8117597 0.1 9971003
15:00−6зсз9128299 0.2 10001316
18:00−7зсз61286100 0.2 1003781
21:00−9сз41092100 0.3 1006390
9 марта, вт
вт900:00−13зсз489423 0.0 1008167
03:00−15зсз489613 0.0 1011148
06:00−16сз379677 0.0 1013165
09:00−15сз589181 0.0 1015421
12:00−13сз578897 0.0 1016540
15:00−12сз578499 0.0 1017708
18:00−14зсз3789100 0.0 1018167
21:00−17сз339169 0.0 102032
10 марта, ср
ср1000:00−16ссз1192100 0.0 102021
03:00−17в239696 0.0 101962
06:00−18в349796 0.2 1019150
09:00−18св459598 0.6 1020239
12:00−16ссв468783 0.1 1021383
15:00−14ссв458141 0.1 1022603
18:00−17ссв339086 0.0 102358
21:00−22св339555 0.0 102648